COSMOS 1086

Satellite information

Favourite Embed

Satellite Type and Status

PAYLOADIN ORBIT

Key statistics

Satellite COSMOS 1086 at a glance.

Uptime

16861

Days in orbit

Revolutions

≈ 12.5

Per day

Orbit

LEO

Low Earth Orbit

Inclination

74.0

Latest

Satellite identification and parameters

Extended collection of information and parameters for COSMOS 1086.

Object identification

Identified? True

Debris? False

Object name: COSMOS 1086

International designator: 1979-024F

Object number (NORAD): 11301

Object ID (CCSDS): 11301

Country: COMMONWEALTH OF INDEPENDENT STATES (CIS)

Current information (Y/N): Y

RCS size: MEDIUM

Orbital parameters

Period: 115.396 minutes

Inclination: 74.034 deg

SMA: 7851.527 km

Apoapsis: 1482.045 km

Periapsis: 1464.74 km

RAAN: 238.7246 deg

Eccentricy: 0.001102

Argument of periapsis: 235.3163 deg

Mean anomaly: 135.1181 deg

Mean motion: 12.47876354 rev/day

Mean motion (dot): -0.00000013 rev/day2

B* drag term: 0.000019637 1/REarth

Two-line elements (TLE)

Creation date: May 12, 2025, 7:41 p.m.

Reference frame: TEME

Reference center: EARTH

Epoch: May 12, 2025, 12:54 p.m. UTC

TLE line 0: 0 COSMOS 1086

TLE line 1: 1 11301U 79024F 25132.53811082 -.00000013 00000-0 19637-4 0 9994

TLE line 2: 2 11301 74.0340 238.7246 0011020 235.3163 135.1181 12.47876354102678

Live tracking on map

Real-time ground track for satellite COSMOS 1086.

In-orbit conjunctions

There are no conjunctions computed for COSMOS 1086, at the moment. Check back to stay up to date, as we update our databases every day.

Go to all conjunctions

Associated space launch

Military communications satellites

COSMOS 1086 was lifted into orbit during the mission ‘Kosmos-3M | Strela-1M 169-176’, on board a Kosmos-3M space rocket.

The launch took place on March 15, 1979, 2:58 a.m. from 132/2.

For more information about the launch, click the button.

Launch to space Kosmos-3M | Strela-1M 169-176
Kosmos-3M | Strela-1M 169-176

Agency: N/A

Status: Launch Successful

Launch date: March 15, 1979, 2:58 a.m. UTC

Rocket: Kosmos-3M

Launch pad: 132/2

Location: Plesetsk Cosmodrome, Russian Federation

...

Latest news about this satellite

There are no fresh news available about this satellite. Check back as we update our databases every day.


Newsletter sign-up

Weekly statistics, charts and insights to help you stay on top of the space industry.